Wetbulb
59.20 53.58 49.04 49.72 40.00 35.82 31.71 36.35 40.65 42.41 44.61 48.34 50.89 49.27 47.68 49.03 48.86 43.39 61.49 67.37 69.03 69.70 70.89 71.13 71.56 72.28 72.36 71.97 72.30 72.50 72.65 72.89 72.85 72.75 72.68 72.61 72.42 72.10 71.80 71.93 71.96 72.12 72.54 71.96 72.06 71.96 71.77 71.33 70.98
53.46 51.45 48.13 43.13 35.80 29.63 32.09 39.02 41.35 43.42 47.90 49.86 52.41 52.86 51.65 53.94 61.59 62.27 63.14 67.92 69.01 70.03 70.69 70.57 71.54 71.75 72.18 71.99 72.09 72.43 72.78 72.65 72.55 72.16 72.16 71.95 71.87 71.65 71.68 71.48 71.41 71.58 71.90 71.78 71.84 71.72 71.31 70.28 69.97
52.37 51.42 43.82 39.20 32.86 31.14 32.69 40.62 43.20 45.46 47.99 48.27 47.50 51.11 55.32 55.77 62.36 63.04 64.75 68.81 68.18 69.32 70.56 70.42 71.04 71.24 71.93 71.97 71.96 71.99 72.10 72.02 71.69 71.60 71.84 71.55 71.44 71.27 71.60 71.15 70.99 71.38 71.75 71.58 71.41 70.77 70.06 69.28 68.53
49.67 46.93 43.18 35.79 32.96 36.84 38.41 42.15 43.41 44.94 47.19 47.48 47.89 50.61 55.71 61.31 63.04 64.78 66.45 68.53 67.43 67.86 70.20 70.42 70.28 70.76 71.57 71.80 71.72 71.68 71.77 71.16 71.03 70.95 71.37 71.63 71.84 71.68 71.47 70.73 70.86 71.16 71.12 71.32 71.01 69.67 68.90 68.21 67.86
45.20 42.24 35.32 31.33 34.49 38.09 41.33 44.40 44.03 44.55 46.04 47.71 48.62 51.11 53.79 61.63 64.23 65.59 65.60 67.68 66.61 66.54 68.83 70.22 69.48 70.48 71.37 71.77 71.83 71.47 71.26 70.85 70.67 70.82 70.91 71.57 71.63 71.55 71.11 70.55 70.60 70.57 70.57 70.64 69.95 68.90 68.07 67.76 67.29
40.25 39.46 30.68 30.03 34.11 39.59 41.92 43.75 43.95 45.95 47.46 47.74 47.97 53.17 54.90 62.64 63.09 63.40 64.87 64.64 66.02 66.05 67.39 69.33 70.69 70.49 70.68 71.01 70.05 69.88 70.40 70.62 70.35 70.62 70.71 71.10 70.98 70.62 70.37 70.10 69.80 69.40 69.32 68.94 68.53 67.87 67.52 66.84 66.35
37.10 34.64 31.23 31.65 34.37 38.16 42.85 45.38 44.82 45.76 46.59 46.87 53.14 52.40 55.68 59.99 62.18 63.22 63.66 64.32 65.80 65.91 66.33 67.11 69.86 70.71 69.14 68.04 68.54 67.39 68.17 69.00 69.19 69.36 68.95 69.19 68.91 69.44 69.52 69.65 69.34 69.20 68.45 68.04 67.62 67.41 66.20 66.36 65.78
40.90 37.09 31.66 33.75 35.77 37.12 43.07 44.65 45.70 45.55 45.20 54.07 57.62 52.88 53.32 59.41 63.09 62.29 62.43 63.50 64.20 64.60 64.56 65.29 66.10 65.70 64.28 64.93 66.90 66.52 66.31 65.81 65.61 66.83 66.79 67.03 66.32 67.57 68.09 68.27 68.73 68.61 68.05 67.45 66.76 65.82 65.38 65.90 64.88
42.70 34.26 30.07 34.74 37.41 39.50 44.74 43.10 45.09 46.98 48.10 51.18 52.05 57.03 58.42 61.89 62.63 60.66 59.21 59.04 61.07 62.99 62.90 63.09 63.76 64.53 64.63 65.38 66.94 66.92 66.05 64.74 65.05 65.91 65.11 63.03 64.07 65.98 66.45 66.55 66.85 67.55 66.24 66.01 65.63 64.69 64.96 64.55 63.74
41.21 34.05 35.63 40.41 42.02 41.45 41.61 43.23 44.94 45.15 46.01 46.87 53.52 59.06 61.07 62.08 60.76 58.91 57.51 57.43 59.71 60.20 60.61 61.87 62.41 62.72 62.80 65.04 64.81 65.23 63.58 64.91 63.57 63.87 63.49 62.02 63.62 65.02 65.07 65.67 66.22 66.04 65.62 65.39 64.68 64.18 64.29 62.90 60.80
40.45 39.02 41.28 42.64 44.51 43.17 41.87 43.88 44.91 42.70 43.73 46.64 50.87 56.52 59.19 59.81 58.26 57.86 57.48 57.72 60.59 60.52 60.30 61.02 62.20 63.92 62.98 62.60 62.16 63.08 63.77 63.87 62.95 62.74 62.36 62.35 63.20 64.59 64.18 63.95 64.17 63.91 64.56 62.41 61.32 59.90 59.35 59.63 59.14
38.86 42.28 44.60 44.47 45.46 43.20 43.23 44.83 43.67 42.94 46.05 48.22 48.93 58.38 58.80 58.12 57.23 57.10 56.83 57.03 58.78 59.50 59.90 61.09 63.31 63.41 63.54 62.89 61.68 61.19 61.39 62.05 61.29 61.28 60.61 62.10 62.39 63.16 64.12 63.47 62.46 61.41 60.91 59.91 58.35 55.55 55.79 57.23 57.38
41.22 42.79 45.25 46.16 45.73 44.72 45.67 43.47 44.48 44.72 47.61 46.90 54.78 58.64 58.11 58.03 57.34 55.83 56.51 57.26 58.60 59.02 59.38 61.65 62.21 62.67 62.87 62.35 61.63 60.68 59.98 60.38 60.70 60.44 60.28 62.20 62.64 63.29 63.67 62.88 61.76 59.34 58.83 58.42 56.19 54.23 55.18 56.24 56.46
43.54 44.01 44.73 46.40 46.61 46.31 44.64 44.51 41.89 45.92 45.08 47.62 56.32 56.52 56.69 56.90 55.86 54.34 56.16 57.24 59.03 59.25 59.40 61.59 61.30 63.21 63.13 62.35 61.13 60.38 59.34 60.38 59.68 61.31 60.55 63.11 63.00 63.51 62.51 61.66 60.78 59.30 58.14 56.78 55.95 54.09 54.23 55.96 56.33
44.46 40.15 42.12 43.14 42.04 42.68 44.15 39.66 38.91 45.17 44.99 48.66 54.93 56.00 55.77 56.22 55.01 55.97 57.19 58.32 59.44 59.98 59.44 60.36 61.02 62.86 62.75 62.19 61.06 61.28 61.74 61.67 61.42 61.33 60.65 62.32 63.58 63.06 62.23 61.01 59.19 58.67 57.04 54.47 53.64 52.59 52.21 53.95 56.58
40.57 39.45 34.81 41.37 43.25 43.94 43.05 37.77 43.36 46.03 45.12 43.43 51.55 53.89 55.54 55.58 55.66 56.44 57.95 58.89 59.14 58.67 59.12 59.26 61.73 61.20 62.24 61.51 61.42 61.73 61.55 61.03 62.09 62.65 62.79 61.87 63.27 62.71 61.18 59.56 58.91 58.58 56.54 55.05 53.80 52.81 52.13 53.45 55.75
36.08 31.33 34.19 38.03 44.02 42.56 41.63 38.47 43.46 46.57 45.31 43.77 44.34 49.77 52.68 55.15 54.24 56.05 58.02 58.62 58.43 58.52 57.87 59.02 61.38 60.51 61.30 61.45 61.59 60.97 60.30 59.72 60.32 61.51 61.64 62.72 62.11 61.12 59.68 58.31 57.53 57.21 56.35 55.16 53.91 53.34 53.73 53.06 54.44
31.47 32.61 31.77 34.68 40.73 41.01 38.00 38.70 44.36 46.26 45.96 45.17 44.73 44.78 50.97 53.21 54.67 55.50 57.42 58.23 57.59 56.99 57.37 59.24 60.03 61.26 61.27 61.38 61.11 60.31 59.72 59.36 59.76 59.68 60.68 61.71 62.15 60.32 58.09 57.38 56.82 56.54 53.82 53.81 54.12 54.34 53.31 53.25 54.65
37.82 35.41 33.65 36.13 43.43 39.23 38.43 38.84 41.50 45.05 43.82 42.98 43.17 41.91 49.91 52.55 54.45 55.36 57.48 57.47 57.31 56.89 56.67 58.97 58.74 60.38 60.66 60.22 59.48 59.14 58.46 58.66 58.74 58.68 60.15 60.46 61.69 60.45 58.27 57.40 56.68 55.87 52.27 53.51 54.95 52.93 52.79 52.14 53.80
34.85 33.81 34.73 39.37 43.78 40.19 37.77 37.98 42.09 44.40 44.63 44.13 45.09 43.04 46.01 52.01 51.19 56.07 57.05 57.16 57.41 57.23 57.39 57.67 58.04 59.47 60.40 60.39 60.27 59.81 59.85 59.43 59.26 58.69 58.74 60.30 60.22 61.28 59.27 57.48 57.29 55.93 54.44 54.63 55.01 53.11 51.90 52.12 53.46
34.85 32.65 35.02 35.88 40.02 40.23 38.27 36.66 39.41 44.71 43.99 44.75 44.92 45.67 47.95 51.53 51.35 55.16 56.23 56.42 57.04 56.32 56.69 56.89 57.77 58.34 59.39 59.91 58.65 58.37 58.23 58.36 58.50 58.10 58.53 59.81 59.63 59.97 60.79 58.50 58.05 57.56 56.32 55.76 54.98 53.36 53.44 51.91 52.00
31.89 38.71 39.48 36.41 34.06 28.47 36.92 27.91 37.11 41.74 42.77 42.93 44.50 44.28 45.77 51.42 53.08 54.81 55.63 55.77 56.09 56.45 55.87 56.17 58.20 57.87 58.41 59.07 58.42 57.56 57.03 56.33 57.49 58.26 58.41 59.33 59.07 59.14 58.89 60.01 58.43 58.42 58.11 56.73 55.37 55.05 54.50 53.96 52.76
36.31 42.91 40.57 38.96 34.56 32.09 33.83 30.20 35.01 39.23 39.92 41.60 43.37 44.17 44.69 51.41 53.04 53.79 55.34 55.97 56.69 56.98 56.38 57.01 57.04 56.77 57.58 57.83 57.81 57.22 56.22 56.55 57.34 57.32 57.39 58.45 58.41 57.83 57.30 58.72 57.91 57.73 58.15 57.65 56.37 54.27 52.84 54.95 54.20
42.53 40.82 39.79 39.16 34.45 27.02 32.82 32.34 32.67 38.30 41.37 43.12 45.23 45.87 44.28 49.46 52.91 53.96 55.91 56.25 56.06 56.51 56.49 56.13 56.01 55.23 56.67 57.06 56.67 55.21 55.96 55.67 55.97 56.47 56.25 57.39 58.03 57.05 56.68 57.79 57.26 57.41 57.28 57.15 56.76 55.58 53.94 53.76 55.12
40.66 36.96 29.29 27.34 25.64 25.38 35.99 33.39 36.24 42.44 44.48 44.65 45.26 46.98 45.14 48.71 52.22 52.76 54.14 54.79 55.02 55.69 55.87 55.69 55.71 55.22 55.77 56.90 56.23 55.39 54.31 55.41 55.79 55.89 56.33 56.31 56.67 56.25 55.57 56.36 56.89 56.46 56.67 57.16 57.28 56.31 55.83 53.96 53.40
36.89 37.54 30.65 23.96 25.45 27.72 37.05 30.93 36.98 45.37 46.31 47.22 47.41 47.93 47.46 47.02 52.52 52.89 54.45 54.86 55.04 55.62 55.77 55.23 54.92 55.21 55.57 56.28 56.89 56.84 55.34 56.01 55.31 56.16 56.21 56.57 56.69 56.36 55.89 56.22 56.83 57.28 56.91 56.58 57.16 56.57 55.95 55.59 54.25
37.66 33.90 39.39 33.05 34.31 28.53 32.37 37.65 43.04 44.92 43.53 45.46 44.63 45.15 45.42 48.23 52.64 52.28 54.19 55.02 54.84 55.66 55.45 55.08 55.00 55.53 55.65 55.81 56.45 56.72 55.95 53.65 53.69 54.59 55.06 56.07 57.14 56.49 55.08 55.48 56.14 56.82 56.82 56.42 56.06 56.48 55.89 55.90 54.77
39.02 41.77 33.33 34.93 27.36 24.73 31.28 35.13 35.71 39.76 40.30 43.90 44.05 44.04 47.32 50.35 51.72 52.44 53.53 54.80 55.44 55.47 55.70 55.40 55.70 55.56 55.52 56.06 55.59 55.65 55.75 55.69 53.28 52.61 52.98 53.23 53.39 54.49 55.91 55.64 55.53 55.85 56.54 56.42 55.78 55.22 55.37 56.03 55.82
37.52 36.91 36.22 36.71 35.06 28.09 26.86 33.52 42.98 43.17 43.18 42.27 44.54 46.04 46.49 48.59 51.12 52.61 53.45 54.27 54.90 55.34 55.53 55.45 55.67 55.85 55.60 55.75 56.39 55.68 55.59 54.80 54.09 52.98 52.44 53.28 53.46 53.07 53.72 56.67 56.16 55.61 55.74 56.08 55.60 55.19 54.95 54.37 55.27
40.04 37.77 38.07 32.24 31.29 34.04 33.59 33.70 46.06 45.66 44.47 44.36 45.08 46.50 47.78 49.71 50.97 52.46 53.54 54.54 55.04 55.21 55.14 55.57 55.64 55.08 56.28 56.90 56.62 55.97 55.51 55.77 55.29 54.78 54.36 53.24 53.61 53.62 53.43 53.25 55.63 56.93 56.05 55.74 55.58 55.78 56.27 55.74 54.82
MSLP
1010.38 1010.54 1010.84 1011.28 1012.91 1013.74 1013.13 1011.50 1009.72 1008.20 1006.87 1005.51 1005.03 1005.29 1005.48 1005.68 1005.96 1006.87 1006.50 1006.57 1006.94 1007.28 1007.45 1007.69 1008.01 1008.30 1008.68 1009.11 1009.29 1009.20 1009.04 1009.25 1009.97 1010.47 1010.58 1010.67 1010.81 1011.10 1011.56 1012.05 1012.44 1012.80 1013.05 1013.45 1013.78 1014.13 1014.59 1015.12 1015.54
1010.44 1010.81 1011.26 1012.29 1013.60 1014.16 1012.45 1010.38 1008.84 1007.36 1006.24 1005.47 1005.15 1005.28 1005.44 1005.55 1005.66 1006.06 1006.50 1006.37 1006.70 1007.09 1007.37 1007.57 1007.79 1008.17 1008.47 1008.80 1009.24 1009.31 1009.38 1009.41 1009.52 1010.24 1010.84 1010.96 1011.06 1011.38 1011.67 1012.08 1012.56 1012.89 1013.27 1013.62 1014.14 1014.46 1014.97 1015.54 1016.02
1010.26 1010.63 1011.89 1012.97 1013.65 1013.08 1011.63 1009.37 1007.91 1006.80 1005.71 1005.73 1005.42 1005.07 1005.01 1005.05 1005.29 1005.57 1005.42 1005.86 1006.62 1007.20 1007.28 1007.50 1007.69 1007.90 1008.15 1008.69 1009.07 1009.29 1009.44 1009.67 1009.87 1010.02 1010.43 1011.10 1011.40 1011.62 1011.88 1012.30 1012.67 1013.07 1013.40 1013.79 1014.10 1014.90 1015.45 1016.04 1016.28
1010.46 1011.36 1012.73 1012.96 1013.04 1011.31 1010.13 1008.33 1007.42 1006.61 1005.67 1005.30 1005.31 1005.10 1005.02 1004.66 1004.78 1005.00 1005.46 1005.93 1006.48 1007.15 1007.28 1007.39 1007.57 1007.79 1008.07 1008.39 1008.85 1009.32 1009.57 1009.83 1010.04 1010.26 1010.38 1010.75 1011.33 1011.83 1012.25 1012.59 1012.93 1013.13 1013.41 1013.92 1014.37 1015.27 1016.02 1016.37 1016.63
1011.01 1012.04 1012.90 1012.90 1011.97 1010.20 1009.18 1008.08 1007.20 1006.83 1006.26 1005.38 1005.38 1005.34 1005.03 1004.68 1004.77 1005.04 1005.38 1005.83 1006.45 1007.02 1007.17 1007.45 1007.68 1007.86 1008.01 1008.31 1008.68 1009.11 1009.57 1009.65 1009.79 1009.96 1010.22 1010.38 1010.96 1011.65 1012.38 1012.78 1012.99 1013.35 1013.67 1014.07 1014.79 1015.71 1016.32 1016.74 1017.00
1011.70 1012.45 1013.09 1012.50 1011.30 1009.63 1008.42 1007.48 1007.01 1006.39 1005.34 1004.93 1005.41 1005.64 1005.42 1005.15 1005.47 1005.85 1005.95 1005.78 1006.30 1007.00 1007.18 1007.44 1007.75 1007.90 1008.06 1008.30 1008.56 1008.75 1009.17 1009.46 1009.68 1009.86 1010.23 1011.21 1010.69 1011.50 1012.30 1012.93 1013.29 1013.77 1014.05 1014.66 1015.37 1016.01 1016.50 1017.00 1017.26
1011.56 1012.50 1012.16 1011.48 1010.54 1009.22 1007.55 1006.71 1006.45 1005.68 1004.36 1004.03 1004.22 1005.86 1005.80 1005.86 1005.87 1006.17 1006.43 1006.23 1006.39 1007.01 1007.23 1007.36 1007.58 1007.89 1008.29 1008.34 1008.46 1008.89 1009.34 1009.63 1009.72 1010.42 1011.01 1011.97 1011.72 1011.81 1012.52 1013.04 1013.47 1013.85 1014.42 1015.18 1015.88 1016.31 1016.73 1017.29 1017.61
1011.23 1011.82 1011.55 1010.79 1010.10 1007.98 1007.06 1006.33 1005.60 1005.52 1004.18 1003.62 1004.11 1005.26 1005.52 1005.36 1005.93 1006.27 1006.74 1006.71 1006.90 1007.21 1007.23 1007.40 1007.72 1007.98 1008.35 1008.41 1008.74 1009.24 1010.16 1010.56 1009.69 1011.57 1011.66 1012.11 1012.78 1013.00 1013.20 1013.68 1014.10 1014.11 1014.65 1015.58 1016.11 1016.62 1016.92 1017.60 1017.91
1010.71 1011.32 1010.72 1009.95 1008.99 1007.58 1006.54 1006.26 1005.20 1004.93 1004.88 1004.84 1004.46 1004.28 1003.97 1004.46 1005.78 1006.54 1006.87 1007.16 1007.48 1007.60 1007.57 1007.67 1007.88 1007.99 1008.29 1008.47 1008.56 1009.12 1009.80 1010.20 1009.99 1011.28 1011.87 1013.12 1013.44 1013.70 1013.54 1014.09 1014.49 1014.66 1014.79 1015.78 1016.38 1016.89 1017.32 1017.95 1018.25
1010.38 1010.27 1009.44 1008.54 1007.93 1007.17 1006.68 1006.37 1005.52 1005.26 1004.91 1004.69 1005.01 1004.63 1004.34 1004.79 1005.72 1006.38 1006.58 1007.10 1007.54 1007.66 1007.73 1007.91 1008.03 1008.18 1008.43 1008.51 1008.90 1009.22 1009.90 1010.50 1011.01 1011.42 1012.03 1012.43 1012.54 1013.66 1014.31 1014.37 1014.65 1015.21 1015.30 1015.87 1016.66 1017.18 1017.63 1018.15 1018.65
1009.33 1008.24 1008.26 1007.72 1007.16 1007.05 1006.55 1005.96 1005.88 1005.41 1004.92 1004.80 1005.15 1004.98 1004.94 1005.30 1005.94 1006.33 1006.35 1006.61 1006.89 1007.37 1007.78 1007.97 1008.09 1008.27 1008.66 1008.94 1009.14 1009.47 1009.80 1010.38 1011.14 1011.36 1011.99 1012.51 1012.34 1013.39 1014.68 1014.91 1015.02 1015.61 1016.14 1015.99 1016.88 1017.57 1017.96 1018.34 1018.83
1009.06 1007.97 1007.73 1007.24 1006.96 1006.89 1006.41 1005.93 1005.25 1005.25 1004.41 1004.26 1004.36 1004.70 1004.80 1005.23 1005.55 1005.87 1006.00 1006.48 1007.10 1007.32 1007.61 1007.90 1008.10 1008.30 1008.55 1008.87 1009.42 1009.65 1009.96 1010.38 1010.93 1011.35 1012.10 1012.51 1012.80 1012.89 1013.88 1014.85 1015.25 1015.77 1016.33 1016.32 1016.96 1017.80 1018.16 1018.46 1018.97
1008.30 1007.71 1007.15 1006.65 1006.58 1006.30 1005.90 1005.55 1005.07 1004.49 1003.76 1003.87 1003.98 1004.40 1004.42 1004.69 1005.14 1005.50 1005.75 1006.11 1006.67 1007.19 1007.44 1007.70 1008.00 1008.29 1008.37 1008.76 1009.37 1009.86 1010.23 1010.52 1010.85 1011.49 1011.87 1012.13 1012.58 1013.21 1013.48 1014.36 1014.99 1015.82 1016.22 1016.46 1017.06 1017.65 1018.03 1018.49 1019.01
1007.30 1006.98 1006.43 1006.06 1005.80 1005.80 1005.65 1004.77 1005.03 1003.65 1003.20 1003.57 1003.97 1004.18 1004.01 1004.27 1004.74 1005.41 1005.82 1006.06 1006.52 1006.83 1007.20 1007.39 1007.82 1007.98 1008.28 1008.64 1009.13 1009.68 1010.10 1010.41 1010.96 1011.30 1011.72 1011.92 1012.33 1012.76 1013.27 1014.15 1014.93 1015.74 1016.17 1016.62 1016.85 1017.58 1018.15 1018.46 1019.16
1006.98 1006.67 1006.05 1005.78 1005.23 1005.06 1005.05 1004.33 1004.28 1003.21 1003.04 1003.24 1003.64 1003.93 1003.86 1003.91 1004.51 1004.53 1004.76 1005.42 1005.92 1006.46 1006.68 1007.18 1007.48 1007.80 1008.09 1008.48 1008.98 1009.47 1009.80 1010.11 1010.70 1011.05 1011.41 1011.57 1011.99 1012.57 1013.01 1013.94 1014.91 1015.56 1016.25 1016.57 1017.29 1017.83 1018.28 1018.78 1019.34
1007.08 1006.47 1006.17 1005.17 1004.99 1004.58 1004.87 1003.48 1003.10 1002.56 1002.44 1002.73 1003.03 1003.44 1003.51 1003.53 1003.43 1004.14 1004.58 1005.04 1005.84 1006.35 1006.61 1007.00 1007.28 1007.74 1008.03 1008.48 1008.91 1009.29 1009.54 1009.87 1010.24 1010.54 1010.89 1011.34 1011.78 1012.44 1012.90 1013.76 1014.64 1015.43 1016.11 1016.15 1017.05 1018.09 1018.62 1018.90 1019.26
1007.41 1006.79 1006.17 1005.46 1004.59 1004.49 1004.35 1003.44 1002.39 1001.97 1002.15 1002.19 1002.55 1002.85 1002.92 1003.07 1003.47 1003.85 1004.50 1005.04 1005.81 1006.10 1006.36 1006.91 1007.22 1007.62 1007.99 1008.53 1008.93 1009.32 1009.65 1009.91 1010.10 1010.24 1009.88 1010.53 1011.56 1012.38 1013.09 1013.79 1014.50 1015.14 1015.69 1016.01 1016.85 1017.71 1018.52 1018.94 1019.47
1008.04 1007.21 1006.35 1005.43 1004.72 1004.38 1004.26 1003.40 1002.22 1001.86 1001.81 1001.49 1001.87 1002.28 1002.57 1002.66 1002.43 1003.09 1004.23 1005.11 1005.69 1006.10 1006.37 1006.75 1007.17 1007.56 1007.96 1008.49 1009.01 1009.48 1009.82 1010.15 1010.22 1010.31 1010.43 1010.74 1011.79 1012.72 1013.39 1013.83 1014.46 1015.05 1015.80 1016.48 1016.85 1017.46 1018.41 1018.70 1019.59
1008.00 1007.24 1006.42 1005.58 1004.87 1004.78 1004.19 1003.42 1002.14 1001.58 1001.38 1001.11 1001.26 1001.22 1001.94 1002.05 1001.51 1002.96 1004.09 1005.07 1005.71 1006.23 1006.44 1006.71 1007.06 1007.46 1007.87 1008.36 1008.94 1009.44 1009.72 1010.21 1010.53 1010.81 1010.98 1011.38 1011.89 1012.58 1013.10 1013.84 1014.66 1015.20 1015.91 1016.28 1016.90 1017.42 1018.07 1019.10 1019.44
1007.98 1007.23 1006.06 1005.21 1004.78 1004.51 1004.09 1003.19 1001.80 1001.07 1000.79 1000.37 1000.02 1000.12 1000.81 1001.37 1002.21 1002.95 1003.92 1004.97 1005.41 1005.92 1006.31 1006.60 1007.01 1007.35 1007.74 1008.11 1008.67 1009.25 1009.75 1010.14 1010.59 1011.08 1011.30 1011.55 1012.11 1012.52 1013.05 1013.76 1014.45 1015.15 1015.88 1016.36 1016.70 1016.98 1017.93 1018.75 1019.12
1007.68 1007.11 1006.26 1005.47 1005.28 1004.73 1004.24 1002.88 1001.48 1000.10 999.93 999.46 999.09 999.17 999.64 1000.18 1001.22 1002.53 1003.44 1004.36 1005.15 1005.64 1006.02 1006.35 1006.78 1007.29 1007.65 1007.99 1008.61 1009.23 1009.82 1010.33 1010.66 1011.01 1011.46 1011.75 1012.10 1012.57 1012.97 1013.63 1014.23 1015.06 1015.52 1016.07 1016.59 1016.92 1017.39 1018.17 1019.11
1007.01 1006.68 1006.24 1005.68 1005.58 1004.94 1004.11 1002.99 1001.45 1000.31 999.48 998.90 998.86 999.22 999.41 999.83 1000.42 1001.55 1002.76 1003.80 1004.36 1004.98 1005.85 1006.27 1006.77 1007.16 1007.60 1007.94 1008.39 1008.95 1009.40 1009.88 1010.14 1010.56 1011.19 1011.55 1011.87 1012.36 1012.82 1013.56 1014.07 1014.78 1015.42 1015.94 1016.45 1016.90 1017.12 1017.61 1018.38
1006.69 1006.49 1006.36 1005.89 1005.66 1005.33 1004.45 1003.79 1000.85 1000.12 999.39 998.71 998.75 998.74 998.99 998.91 999.52 1000.72 1001.58 1002.53 1003.80 1004.67 1005.43 1006.16 1006.83 1007.26 1007.43 1007.80 1008.16 1008.83 1009.38 1009.83 1010.14 1010.49 1010.94 1011.53 1011.72 1012.27 1012.71 1013.52 1014.07 1014.76 1015.20 1015.84 1016.08 1016.71 1016.90 1017.19 1017.67
1006.94 1006.88 1006.65 1006.26 1005.97 1005.11 1004.06 1003.44 1000.65 999.91 998.97 998.07 997.78 997.91 998.25 998.32 999.01 999.98 1001.52 1002.64 1003.78 1004.67 1005.38 1006.10 1006.61 1007.15 1007.36 1007.67 1008.11 1008.64 1009.24 1009.82 1010.15 1010.56 1010.83 1011.25 1011.54 1012.25 1012.86 1013.43 1013.95 1014.28 1014.85 1015.31 1015.76 1016.23 1016.66 1016.94 1017.17
1007.21 1007.67 1007.08 1006.77 1006.03 1004.38 1003.16 1002.59 1000.23 999.61 998.79 998.08 997.52 997.20 997.54 997.74 998.75 1000.07 1001.04 1002.13 1003.31 1004.14 1004.93 1005.79 1006.40 1006.93 1007.34 1007.61 1008.09 1008.61 1009.04 1009.56 1009.96 1010.21 1010.52 1010.98 1011.39 1011.89 1012.67 1013.14 1013.67 1013.94 1014.22 1014.66 1015.26 1016.21 1016.45 1016.90 1017.12
1006.65 1007.65 1007.29 1006.45 1005.57 1004.62 1003.32 1001.51 1000.14 999.26 998.56 997.92 997.03 996.55 996.25 997.25 997.86 998.80 999.96 1001.25 1002.42 1003.55 1004.49 1005.49 1006.14 1006.65 1007.22 1007.61 1007.93 1008.33 1008.70 1009.03 1009.75 1010.15 1010.49 1010.82 1011.17 1011.47 1012.06 1012.56 1013.16 1013.79 1014.02 1014.65 1015.19 1016.01 1016.29 1016.79 1017.11
1006.97 1007.10 1007.61 1007.04 1006.33 1005.24 1003.42 1001.41 999.84 999.52 999.05 998.35 997.48 996.62 996.31 996.55 997.02 998.30 999.76 1000.82 1001.90 1002.97 1003.88 1004.74 1005.69 1006.34 1006.82 1007.26 1007.69 1008.11 1008.52 1009.03 1009.23 1009.78 1010.38 1010.58 1010.94 1011.38 1011.96 1012.49 1013.07 1013.51 1014.00 1014.45 1014.96 1015.67 1016.21 1016.71 1016.82
1007.10 1007.23 1007.57 1007.21 1006.55 1005.49 1003.55 1002.43 1002.10 1001.24 1000.49 1000.12 999.36 998.35 997.39 997.42 998.13 999.00 999.95 1000.92 1002.10 1003.19 1004.22 1005.27 1005.94 1006.49 1007.07 1007.58 1007.92 1008.19 1008.52 1008.88 1009.33 1009.73 1010.16 1010.63 1010.93 1011.19 1011.69 1012.27 1012.66 1013.16 1013.73 1014.13 1014.59 1015.12 1015.41 1015.74 1015.81
1006.95 1006.91 1007.17 1006.92 1006.51 1005.38 1004.27 1003.50 1002.93 1002.84 1002.16 1001.56 1000.99 999.82 998.66 998.65 999.42 1000.12 1000.78 1001.80 1002.81 1003.71 1004.61 1005.43 1006.13 1006.81 1007.36 1007.78 1008.09 1008.42 1008.65 1009.04 1009.40 1009.74 1010.05 1010.27 1010.83 1011.34 1011.58 1011.77 1012.23 1012.67 1013.14 1013.62 1014.10 1014.46 1014.72 1014.94 1015.01
1005.47 1006.39 1006.66 1006.60 1006.40 1005.81 1005.08 1004.05 1003.41 1003.35 1002.80 1002.45 1001.98 1001.41 1000.25 1000.37 1000.55 1001.26 1001.91 1002.56 1003.34 1004.11 1004.86 1005.42 1006.08 1006.55 1007.02 1007.38 1007.75 1008.04 1008.37 1008.74 1009.18 1009.54 1009.81 1010.15 1010.43 1010.75 1011.17 1011.70 1012.00 1012.14 1012.34 1012.74 1013.14 1013.40 1013.53 1013.76 1013.96
Wind_Speed
5 4 2 5 5 5 4 8 4 8 7 4 4 5 6 2 5 5 1 8 6 10 10 11 13 14 14 14 15 18 19 20 19 18 20 22 22 23 22 20 20 20 20 22 23 24 24 25 23
4 3 5 3 5 2 7 5 8 4 6 4 5 5 3 2 2 6 6 9 10 10 11 11 16 15 14 15 14 17 20 20 21 20 18 20 21 21 21 21 20 20 21 22 22 24 24 25 22
7 3 5 5 4 7 7 6 3 6 5 4 3 1 6 5 3 9 3 13 9 9 12 11 17 17 17 15 15 16 19 20 20 21 22 20 20 20 21 20 20 21 20 21 24 24 25 22 22
3 4 4 5 8 9 7 5 3 10 9 5 3 3 1 0 7 8 9 11 10 7 8 11 17 17 17 18 17 16 17 19 21 21 23 23 22 21 20 20 20 21 20 21 23 25 22 21 20
4 3 2 3 7 8 4 8 5 11 5 9 1 4 5 6 4 10 11 11 10 7 6 10 14 16 17 18 18 18 17 19 21 23 23 25 25 23 20 20 21 20 21 21 24 22 21 19 20
3 3 2 6 7 6 5 7 3 8 16 13 4 5 5 2 5 5 6 8 8 8 6 7 14 15 16 17 19 20 19 19 20 21 22 20 25 23 21 19 19 19 20 22 21 22 21 18 20
5 4 6 5 4 7 5 6 4 7 15 13 8 5 1 2 3 6 6 6 8 6 7 6 11 13 9 11 15 12 11 16 9 13 20 19 15 20 18 19 19 20 22 20 19 20 19 19 20
5 4 4 5 5 14 5 3 3 5 9 2 7 7 5 8 9 7 6 6 7 5 5 6 5 6 4 5 9 13 21 21 21 14 3 15 10 9 14 14 18 22 22 19 19 18 17 20 20
5 1 5 8 9 8 3 5 5 4 4 8 3 7 5 13 12 6 5 4 4 2 4 3 5 5 6 5 8 16 22 21 29 23 18 11 5 6 12 12 16 19 22 20 17 15 17 20 20
5 5 10 7 8 7 4 7 10 6 11 10 4 4 5 16 14 10 8 7 5 5 3 4 5 6 6 5 6 9 12 10 9 13 14 9 7 6 8 8 15 15 20 20 17 16 20 15 9
6 13 6 6 7 5 5 11 2 4 12 7 7 4 8 11 9 9 8 8 11 6 4 5 5 6 8 6 4 3 5 6 6 10 9 10 9 9 7 4 5 7 12 10 12 11 7 11 8
7 6 14 6 7 5 11 8 9 5 17 9 11 11 11 12 12 12 10 9 8 7 7 6 7 7 8 6 5 5 5 5 6 7 7 6 6 12 9 6 6 6 5 9 9 6 8 9 9
8 4 8 8 7 9 11 12 15 15 19 9 6 13 16 13 11 5 6 7 8 8 7 9 9 9 7 7 5 5 5 5 6 7 8 7 9 10 10 8 6 3 4 8 9 8 7 8 8
5 10 16 13 16 11 12 15 3 16 7 5 10 16 14 14 12 6 8 9 11 9 10 9 10 8 8 7 7 6 4 5 5 6 8 9 10 9 10 10 7 6 5 6 9 9 7 7 8
6 7 8 10 4 8 5 13 7 16 4 10 13 15 13 14 10 17 16 14 14 10 10 12 10 10 8 8 7 6 5 5 6 6 11 9 12 13 11 9 8 7 5 7 6 5 4 5 6
4 3 6 4 8 7 10 22 12 12 9 12 15 12 13 14 16 10 13 13 10 10 11 9 9 10 8 8 6 4 5 4 4 7 11 14 13 13 12 10 9 8 7 8 7 6 5 5 7
3 5 4 5 8 6 8 12 10 8 6 10 10 12 13 14 8 9 12 11 11 11 10 10 10 10 9 8 6 5 6 4 2 5 4 14 13 12 9 8 8 8 7 8 8 4 7 4 5
5 4 5 5 1 4 4 10 9 9 11 10 9 11 14 16 22 13 13 11 10 7 7 10 10 9 9 7 6 4 4 3 2 4 4 8 8 10 8 6 7 8 7 5 5 8 3 5 6
7 6 7 4 5 4 8 11 12 11 7 9 13 9 16 18 11 10 13 12 11 7 8 11 12 10 8 7 6 4 3 3 2 3 4 6 8 10 9 7 7 6 6 9 8 4 6 3 4
8 11 12 11 11 4 9 14 14 14 13 9 11 10 16 14 8 12 15 16 16 15 11 11 12 11 8 6 5 3 4 3 3 3 3 6 7 9 9 10 9 8 6 6 8 6 4 3 6
12 10 9 10 5 8 11 14 8 13 5 7 6 9 9 19 17 14 18 18 15 16 14 11 10 13 11 8 6 4 4 3 4 4 5 6 9 7 9 11 10 8 7 7 6 6 8 5 3
12 7 10 8 6 4 1 6 6 11 8 4 8 7 8 11 13 13 17 19 19 16 11 9 13 13 9 10 8 8 5 4 4 5 6 6 9 10 6 6 10 9 6 8 8 6 7 6 9
7 6 6 3 3 3 5 3 8 2 7 8 7 8 10 16 18 18 21 19 18 16 14 12 13 10 9 10 9 7 6 4 3 4 9 9 7 7 7 9 9 10 7 9 10 7 6 8 7
5 9 10 5 4 7 8 6 6 7 6 6 5 8 11 13 15 16 12 15 16 14 13 13 14 9 9 9 8 9 9 7 6 7 8 8 8 6 6 7 9 11 9 10 7 6 6 6 9
9 4 3 5 5 7 8 8 11 9 9 8 11 13 9 12 13 14 18 18 18 17 14 14 15 13 10 9 8 7 8 8 8 8 7 8 8 8 8 10 9 7 6 7 8 5 3 3 6
14 6 3 5 3 2 5 5 3 6 7 12 14 15 11 12 16 20 20 18 19 20 16 17 16 14 12 12 10 8 6 6 6 7 6 7 9 11 12 11 10 9 8 5 6 6 5 6 8
4 12 2 1 4 2 4 6 2 18 17 20 13 8 9 8 18 18 17 17 18 19 20 19 17 15 16 12 11 11 8 6 7 7 4 7 10 7 8 10 11 11 10 10 9 7 11 12 12
5 3 5 2 4 3 4 3 3 13 16 16 16 10 5 5 8 10 12 12 11 10 12 11 12 13 14 13 8 8 8 9 6 5 7 5 4 5 8 11 11 12 13 13 13 12 13 14 13
3 3 3 2 2 2 1 2 1 10 12 11 12 13 11 9 8 8 10 11 10 10 10 8 8 8 9 11 11 9 8 7 6 7 7 8 6 6 5 9 10 11 12 14 15 17 15 14 14
11 7 4 2 4 2 1 4 4 9 13 10 13 15 17 16 15 14 13 11 11 11 10 10 9 7 8 9 10 10 8 9 10 9 9 7 8 6 9 6 8 11 13 14 14 14 13 14 14
Wind_Direction
132 150 94 42 58 65 257 258 249 271 318 223 135 153 178 149 154 205 202 177 153 160 166 165 162 157 156 156 149 144 143 139 138 136 138 138 138 139 139 140 139 137 134 135 133 132 129 126 121
135 132 43 78 98 81 264 245 245 259 258 16 93 115 160 184 174 142 135 184 164 158 168 171 167 165 162 158 157 151 149 148 145 144 143 142 143 144 143 143 143 141 141 139 134 131 129 126 117
148 73 98 131 145 200 222 221 243 301 324 238 221 300 157 190 160 166 202 155 141 160 172 178 174 173 166 162 162 160 156 153 151 149 149 148 147 146 146 145 145 145 145 141 138 133 130 124 120
140 21 30 124 214 253 206 273 247 345 323 196 246 149 266 217 167 181 137 150 137 157 174 181 182 180 171 167 167 169 164 158 157 157 154 151 151 150 147 148 148 148 147 144 136 131 131 125 120
42 62 153 212 235 255 231 250 308 289 250 268 212 214 204 310 105 127 136 148 144 161 171 183 189 185 179 176 174 173 173 170 163 162 162 157 152 150 149 149 146 146 145 138 130 135 131 121 121
58 101 122 219 237 253 263 239 236 240 269 257 203 180 192 57 119 139 132 130 135 161 173 178 194 194 185 183 189 184 179 176 172 167 157 165 149 147 147 143 143 144 134 126 133 134 129 129 127
150 128 215 202 218 272 226 202 239 298 268 235 148 157 334 233 160 130 129 126 130 153 157 172 191 199 219 209 198 204 194 204 156 149 152 174 133 137 145 146 144 136 129 130 134 135 129 131 132
128 127 206 219 195 258 224 243 252 330 315 51 136 183 216 200 166 141 138 117 124 150 159 174 148 146 146 177 184 131 112 109 74 80 84 130 116 138 146 148 147 134 127 128 133 131 122 142 135
126 220 210 202 191 236 315 356 203 288 0 337 277 165 237 138 143 139 122 86 104 130 139 137 141 130 122 110 147 138 140 151 146 145 136 106 127 187 178 157 151 139 128 130 131 120 136 137 131
170 206 215 210 226 258 324 318 318 355 324 314 276 315 113 142 159 167 160 154 169 178 171 174 157 141 127 132 127 142 151 155 146 149 149 136 122 150 198 164 143 141 130 130 124 121 133 129 128
215 236 223 227 242 256 283 281 9 299 296 233 270 239 164 158 166 169 178 170 180 168 163 182 154 161 149 135 126 136 141 157 156 162 161 175 136 154 184 163 125 135 140 131 126 122 130 139 135
259 229 235 254 246 269 264 294 282 173 260 265 263 198 167 177 187 189 176 164 170 163 171 167 173 171 158 142 145 145 153 160 160 181 159 175 161 156 162 180 147 148 168 135 131 135 135 140 141
244 268 263 259 253 250 267 251 256 281 268 267 223 176 185 188 197 190 179 160 157 165 172 175 172 178 151 143 143 154 165 169 170 166 168 173 163 168 155 162 147 153 145 146 144 138 133 140 135
246 239 250 252 261 262 265 267 148 263 276 231 176 198 192 195 184 150 170 170 174 168 174 169 179 166 159 153 149 154 171 154 157 160 182 180 176 168 162 158 157 161 164 149 151 145 145 136 145
239 255 266 249 215 241 223 280 206 253 233 213 199 212 202 208 172 189 181 176 175 179 159 176 168 170 158 154 150 164 175 160 168 190 184 188 171 168 161 154 158 164 160 128 118 119 122 120 150
267 238 250 235 212 242 172 268 270 248 235 214 207 212 206 210 203 188 180 171 169 162 167 164 164 174 153 145 146 159 160 152 172 174 187 191 171 169 161 158 165 166 160 144 142 138 131 142 143
282 247 263 286 215 221 184 266 263 274 232 242 203 209 206 220 213 188 176 164 168 173 155 163 167 169 150 146 145 148 147 147 146 139 115 145 146 149 156 158 155 159 163 157 158 135 141 150 126
237 258 245 233 310 14 275 269 270 281 278 252 248 194 207 210 221 175 161 162 159 168 154 159 173 161 152 142 139 135 138 109 119 109 135 117 143 157 148 144 147 160 158 159 149 161 127 138 141
257 253 258 255 265 295 257 268 274 291 268 260 249 187 197 210 209 145 156 156 156 163 158 168 173 163 157 153 154 164 162 154 147 136 151 135 158 166 154 143 147 155 174 168 162 136 139 114 145
274 265 267 274 273 257 281 281 286 284 259 230 248 218 198 204 168 154 158 169 172 175 176 171 174 172 167 157 151 136 156 163 168 150 155 157 155 161 163 158 162 169 171 164 169 147 123 111 169
252 253 253 260 299 267 279 280 285 276 247 273 253 233 197 184 179 163 170 176 172 178 179 175 174 176 177 150 122 112 100 97 159 172 182 183 162 153 166 171 168 172 177 181 178 166 163 152 192
249 234 265 270 278 254 97 286 260 281 289 280 275 215 196 192 194 165 167 178 182 179 172 170 181 186 172 155 158 166 184 178 188 177 173 182 175 168 150 162 178 176 179 184 182 185 177 173 183
261 360 288 279 269 219 256 253 269 230 289 279 247 250 222 201 189 179 182 178 177 172 173 170 183 185 171 170 170 176 192 190 165 157 172 180 166 154 140 178 172 195 184 193 182 178 171 186 174
269 299 279 250 213 245 223 205 235 225 227 273 257 230 198 204 204 190 158 155 168 167 169 175 179 182 180 174 169 171 189 191 180 184 181 186 177 159 158 183 179 181 178 177 173 161 173 192 181
218 268 243 223 228 234 195 208 255 305 282 256 271 275 208 200 184 165 161 164 166 169 169 178 181 185 179 182 185 184 175 183 187 178 184 170 181 172 175 175 173 166 151 151 146 171 201 242 209
201 200 224 221 230 183 265 248 215 358 346 309 259 261 273 194 187 178 172 166 167 174 170 180 182 184 182 183 189 200 195 173 172 177 179 188 188 188 178 171 169 182 169 161 152 185 196 236 247
172 209 1 319 315 27 243 270 209 360 360 351 302 265 277 200 179 169 162 165 165 172 178 181 181 185 189 188 184 189 189 187 170 165 172 189 199 185 167 178 184 185 190 183 181 195 208 220 233
166 136 178 176 225 214 232 96 12 1 356 358 354 348 350 102 129 147 152 156 157 154 168 169 176 185 191 195 194 193 188 193 177 160 170 182 183 172 170 178 186 192 199 201 203 218 219 209 222
203 180 186 236 229 230 178 169 35 3 2 358 1 23 41 69 87 89 97 109 108 113 138 135 147 164 187 195 202 203 202 195 184 195 188 179 170 189 184 187 192 192 196 204 207 212 216 215 220
185 193 176 215 172 191 43 266 58 5 10 6 29 30 50 60 74 76 75 92 121 134 148 152 152 156 176 190 201 205 197 196 200 208 211 201 204 189 196 199 213 214 214 209 209 213 212 213 218